Elmira, NY

4:58 PM EST on December 07, 2019 (GMT -0500)
Elmira-Corning Regional

Weather History for KELM - October, 2019

Change the Weather History Date:

Thursday, October 24, 2019

  Actual Average Record
Temperature  
Mean Temperature 50 °F -  
Max Temperature 71 °F 59 °F 77 °F (1991)
Min Temperature 30 °F 33 °F 16 °F (1969)
Degree Days  
Heating Degree Days 14    
Moisture  
Dew Point 35 °F    
Average Humidity 66    
Maximum Humidity 96    
Minimum Humidity 25    
Precipitation  
Precipitation 0.00 in - - ()
Sea Level Pressure  
Sea Level Pressure 30.22 in    
Wind  
Wind Speed 4 mph (WSW)    
Max Wind Speed 23 mph    
Max Gust Speed 32 mph    
Visibility 10 miles    
Events      
Averages and records for this station are not official NWS values.
T = Trace of Precipitation, MM = Missing Value Source: NWS Daily Summary

Daily Weather History Graph

Daily Weather History Graph

Search for Another Location

Airport or City:

Astronomy

Oct. 24, 2019 Rise Set
Actual Time 7:30 AM EDT 6:12 PM EDT
Civil Twilight 7:01 AM EDT 6:40 PM EDT
Nautical Twilight 6:29 AM EDT 7:13 PM EDT
Astronomical Twilight 5:56 AM EDT 7:46 PM EDT
Moon 2:51 AM EDT (10/24) 4:44 PM EDT (10/24)
Length of Visible Light 11h 39m
Length of Day
10h 41m
Waning Crescent, 17% of the Moon is Illuminated
Oct 24
Waning Crescent
Oct 27
New
Nov 4
First Quarter
Nov 12
Full
Nov 19
Last Quarter

Hourly Weather History & Observations

Time (EDT) Temp. Dew Point Humidity Pressure Visibility Wind Dir Wind Speed Gust Speed Precip Events Conditions
12:53 AM 34.0 °F 32.0 °F 92% 30.18 in 10.0 mi Calm Calm - N/A   Clear
1:53 AM 33.1 °F 30.9 °F 92% 30.19 in 10.0 mi Calm Calm - N/A   Clear
2:53 AM 33.1 °F 30.9 °F 92% 30.20 in 10.0 mi Calm Calm - N/A   Clear
3:53 AM 30.9 °F 28.9 °F 92% 30.21 in 10.0 mi Calm Calm - N/A   Clear
4:53 AM 32.0 °F 30.9 °F 96% 30.22 in 10.0 mi Calm Calm - N/A   Clear
5:53 AM 32.0 °F 30.0 °F 92% 30.24 in 10.0 mi Calm Calm - N/A   Clear
6:53 AM 32.0 °F 30.0 °F 92% 30.24 in 10.0 mi Calm Calm - N/A   Clear
7:53 AM 30.0 °F 28.0 °F 92% 30.24 in 10.0 mi Calm Calm - N/A   Clear
8:53 AM 37.0 °F 34.0 °F 89% 30.25 in 10.0 mi Calm Calm - N/A   Clear
9:53 AM 45.0 °F 37.9 °F 76% 30.25 in 10.0 mi Calm Calm - N/A   Clear
10:53 AM 57.9 °F 37.0 °F 46% 30.23 in 10.0 mi SW 10.4 mph - N/A   Clear
11:53 AM 63.0 °F 33.1 °F 33% 30.21 in 10.0 mi WSW 12.7 mph 27.6 mph N/A   Clear
12:53 PM 66.0 °F 34.0 °F 30% 30.18 in 10.0 mi WSW 20.7 mph 32.2 mph N/A   Partly Cloudy
1:53 PM 68.0 °F 34.0 °F 28% 30.15 in 10.0 mi SSW 23.0 mph 27.6 mph N/A   Clear
2:53 PM 69.1 °F 33.1 °F 26% 30.15 in 10.0 mi SSW 15.0 mph 19.6 mph N/A   Clear
3:53 PM 71.1 °F 33.1 °F 25% 30.15 in 10.0 mi WSW 17.3 mph 23.0 mph N/A   Clear
4:53 PM 70.0 °F 32.0 °F 25% 30.16 in 10.0 mi WSW 13.8 mph - N/A   Partly Cloudy
5:53 PM 66.0 °F 37.0 °F 34% 30.18 in 10.0 mi NNW 10.4 mph - N/A   Partly Cloudy
6:53 PM 61.0 °F 41.0 °F 48% 30.22 in 10.0 mi East 8.1 mph - N/A   Overcast
7:53 PM 57.9 °F 42.1 °F 56% 30.25 in 10.0 mi NNE 5.8 mph - N/A   Overcast
8:53 PM 54.0 °F 42.1 °F 64% 30.27 in 10.0 mi NE 5.8 mph - N/A   Mostly Cloudy
9:53 PM 46.0 °F 41.0 °F 83% 30.30 in 10.0 mi Calm Calm - N/A   Partly Cloudy
10:53 PM 45.0 °F 41.0 °F 86% 30.30 in 10.0 mi Calm Calm - N/A   Clear
11:53 PM 46.0 °F 42.1 °F 86% 30.30 in 10.0 mi Calm Calm - N/A   Overcast